Regional Weather Roundup
Issued by NWS Sterling, VA

Home | Current Version | Previous Version | Graphics & Text | Print | Product List | Glossary On
Versions: 1 2 3 4 5 6 7 8 9 10 11 12 13 14 15 16 17 18 19 20 21 22 23 24 25 26 27 28 29 30 31 32 33 34 35 36 37 38 39 40 41 42 43 44 45 46 47 48 49 50
000
ASUS41 KLWX 291110
RWRLWX

REGIONAL WEATHER ROUNDUP
NATIONAL WEATHER SERVICE BALTIMORE MD/WASHINGTON DC
700 AM EDT SUN MAR 29 2015

Note: "FAIR" indicates few or no clouds below 12,000 feet
with no significant weather and/or obstructions to visibility.
 TC=TEMPERATURE CELSIUS

 * =Non NWS site. Station does not report precipitation (e.g. rain,
    snow, etc.), thunder, or fog.

DCZ001-MDZ009-015-VAZ040>042-051-053>054-291200-
WASHINGTON METRO

CITY           SKY/WX    TMP DP  RH WIND       PRES   REMARKS
WASHINGTON NAT CLEAR     28   8  43 NW13      30.37R WCI  17
DULLES         CLEAR     22   6  50 NW5       30.36R
ANDREWS AFB    CLEAR     25   7  46 NW12      30.33R WCI  14
FT BELVOIR     CLEAR     25   7  46 NW8       30.37R WCI  16
QUANTICO       CLEAR     25   6  44 NW8       30.39R WCI  16
COLLEGE PARK*  CLEAR     27   9  46 NW9       30.35R WCI  17
LEESBURG*      CLEAR     23  12  63 NW7       30.36R
MANASSAS*      CLEAR     21  10  63 NW7       30.37R
GAITHERSBURG*  CLEAR     19   7  58 NW7       30.37R

$$

MDZ006>007-011-014-291200-
BALTIMORE METRO

CITY           SKY/WX    TMP DP  RH WIND       PRES   REMARKS
BWI AIRPORT    CLEAR     22   8  55 W7        30.33R
MD SCIENCE CTR   N/A     26   7  44 MISG      30.34R
MARTIN STATE   CLEAR     27  10  50 W13       30.34R WCI  16
ANNAPOLIS      CLEAR     26  10  50 NW8       30.33R WCI  18

$$

MDZ012-015-019>023-291200-
MARYLAND EASTERN SHORE

CITY           SKY/WX    TMP DP  RH WIND       PRES   REMARKS
OCEAN CITY     CLEAR     25   7  46 NW6       30.29R
SALISBURY      CLEAR     25   8  48 NW9       30.30R WCI  15
BAY BRIDGE AP*   N/A     28   9  43 NW13G21   30.33R WCI  18
CAMBRIDGE*     CLEAR     32  10  40 NW9G20    30.32R WCI  24
EASTON*        CLEAR     28  12  50 NW12G17   30.35R WCI  18

$$

MDZ017>025-291200-
SOUTHERN MARYLAND

CITY           SKY/WX    TMP DP  RH WIND       PRES   REMARKS
PATUXENT RIVER PTCLDY    26   7  44 NW13G21   30.34R WCI  15
ST INIGOES     CLEAR     26   6  42 VRB7      30.33R
LEONARDTOWN*   CLEAR     27   7  43 W6        30.35R

$$

MDZ003>005-291200-
NORTH CENTRAL MARYLAND

CITY           SKY/WX    TMP DP  RH WIND       PRES   REMARKS
FREDERICK*     NOT AVBL
HAGERSTOWN APT CLEAR     21   8  57 NW12      30.33R WCI   9
WESTMINSTER*   PTCLDY    21   7  53 NW8       30.29R WCI  12

$$

MDZ501>502-291200-
WESTERN MARYLAND

CITY           SKY/WX    TMP DP  RH WIND       PRES   REMARKS
OAKLAND*       CLEAR     10  10 100 W6        30.18R
CUMBERLAND*    CLEAR     21   7  53 CALM      30.38R

$$

VAZ025>031-291200-
SHENANDOAH VALLEY

CITY           SKY/WX    TMP DP  RH WIND       PRES   REMARKS
WINCHESTER*    CLEAR     23   3  42 CALM      30.34R
FRONT ROYAL*   FAIR      19   9  63 CALM      30.34R
LURAY*         FAIR      21  12  68 CALM      30.34R
NEW MARKET*    FAIR      15   8  71 CALM      30.34R
STAUNTON*      CLEAR     17   9  72 CALM      30.34R
WAYNESBORO*    FAIR      20   6  54 W3        30.30R

$$

WVZ021-048>050-054>055-291200-
EASTERN WEST VIRGINIA PANHANDLE

CITY           SKY/WX    TMP DP  RH WIND       PRES   REMARKS
MARTINSBURG    CLEAR     22   6  50 NW5       30.35R
PETERSBURG*    CLEAR     17   8  66 CALM      30.36R

$$

VAZ036>039-050-291200-
CENTRAL FOOTHILLS

CITY           SKY/WX    TMP DP  RH WIND       PRES   REMARKS
CHARLOTTESVILL CLEAR     26   3  37 N6        30.35R
CULPEPER*      CLEAR     25   7  46 NW3       30.36R
ORANGE*        CLEAR     19  16  86 S3        30.37R
GORDONSVILLE*  FAIR      17  13  84 CALM      30.36R
WARRENTON*     FAIR      24  14  66 NW7       30.36R

$$

VAZ055>057-291200-
NORTH AND CENTRAL PIEDMONT

CITY           SKY/WX    TMP DP  RH WIND       PRES   REMARKS
FREDERICKSBRG* CLEAR     26   8  48 NW6       30.37R
STAFFORD*      CLEAR     20   8  59 NW5       30.41R

$$

NCZ024-NYZ072-PAZ021-071-VAZ022-071-291200-
OTHER REGIONAL OBSERVATIONS

CITY           SKY/WX    TMP DP  RH WIND       PRES   REMARKS
NEW YORK CITY  CLOUDY    25   3  38 NW12      30.24R WCI  14
PHILADELPHIA   PTCLDY    26   5  40 NW14      30.28R WCI  14
PITTSBURGH     CLEAR     15   8  73 CALM      30.32R
ROANOKE        CLEAR     23   6  48 W6        30.36R
RICHMOND       CLEAR     27   6  41 N7        30.36R
RALEIGH        CLEAR     25  13  60 CALM      30.37R

$$

ANZ530>537-291200-
MARINE OBSERVATIONS

STATION/POSITION TIME  TEMP    WIND        PRES
                       AIR SEA DIR/SP/G
                 (UTC) (F)     (DEG/KT/KT) (MB)
THOMAS PT LIGHT  1100                        N/A

$$



USA.gov is the U.S. government's official web portal to all federal, state and local government web resources and services.